EST,Max TemperatureF,Mean TemperatureF,Min TemperatureF,Max Dew PointF,MeanDew PointF,Min DewpointF,Max Humidity, Mean Humidity, Min Humidity, Max Sea Level PressureIn, Mean Sea Level PressureIn, Min Sea Level PressureIn, Max VisibilityMiles, Mean VisibilityMiles, Min VisibilityMiles, Max Wind SpeedMPH, Mean Wind SpeedMPH, Max Gust SpeedMPH,PrecipitationIn, CloudCover, Events, WindDirDegrees
2011-12-1,46,36,26,34,27,21,92,71,49,30.28,30.06,29.78,10,10,10,17,5,21,0.00,0,,315
2011-12-2,39,30,21,34,27,19,96,75,54,30.44,30.34,30.28,10,8,0,10,2,14,0.03,5,Fog-Rain-Snow,136
2011-12-3,37,30,23,32,26,22,100,78,56,30.70,30.60,30.44,10,8,2,12,2,14,T,4,Snow,360
2011-12-4,48,35,22,41,34,23,92,77,61,30.61,30.45,30.32,10,10,10,23,7,31,0.00,5,,196
2011-12-5,53,44,35,45,41,35,100,82,63,30.32,30.26,30.16,10,9,5,10,5,13,0.00,5,Fog,194
2011-12-6,52,45,37,52,44,35,100,95,89,30.15,30.04,29.96,10,4,0,15,6,20,0.37,8,Fog-Rain,193
2011-12-7,38,37,36,36,36,35,92,92,92,29.95,29.84,29.58,10,5,1,13,7,17,0.47,8,Rain,11
2011-12-8,36,32,27,34,27,17,100,76,51,30.20,29.60,29.24,10,7,1,29,14,40,0.79,5,Rain-Snow,312
2011-12-9,42,35,28,34,28,21,79,71,63,30.31,30.24,30.17,10,10,10,12,6,20,0.00,7,,193
2011-12-10,41,30,19,31,22,13,76,65,53,30.37,30.20,30.11,10,10,10,21,6,24,0.00,5,,290
2011-12-11,32,25,17,18,15,12,84,67,49,30.59,30.52,30.38,10,10,10,14,4,17,0.00,1,,231
2011-12-12,48,35,22,29,22,16,92,67,41,30.48,30.43,30.37,10,10,9,12,3,14,0.00,0,,187
2011-12-13,42,31,19,29,25,18,96,76,55,30.36,30.34,30.30,10,10,10,8,2,10,0.00,4,,359
2011-12-14,38,31,24,28,26,21,92,78,64,30.44,30.39,30.34,10,10,10,10,6,14,0.00,7,,25
2011-12-15,49,40,30,46,37,23,93,79,64,30.32,29.93,29.54,10,8,3,23,10,31,0.30,8,Rain-Snow,180
2011-12-16,48,39,30,45,33,20,93,71,49,30.01,29.71,29.49,10,9,2,31,9,39,0.08,5,Rain,275
2011-12-17,30,25,19,22,14,5,88,62,35,30.20,30.10,29.99,10,10,7,17,6,21,T,6,Snow,352
2011-12-18,20,14,7,5,1,-2,80,60,39,30.29,30.25,30.19,10,10,10,20,11,23,0.00,1,,2
2011-12-19,37,22,6,27,15,1,88,71,54,30.25,29.97,29.71,10,10,9,22,4,26,T,5,Fog,203
2011-12-20,37,24,10,27,11,0,76,54,32,30.23,30.02,29.72,10,9,2,26,9,32,T,2,Snow,305
2011-12-21,33,22,10,32,22,7,100,87,73,30.20,29.96,29.62,10,4,0,7,1,8,0.44,7,Fog-Rain-Snow-Hail,340
2011-12-22,45,36,27,38,32,27,96,83,70,30.09,29.81,29.57,10,7,0,14,2,18,0.00,6,Fog,304
2011-12-23,34,27,20,32,29,13,92,80,68,30.18,29.98,29.88,10,4,0,28,2,35,0.21,7,Fog-Snow,343
2011-12-24,20,8,-4,13,3,-7,86,72,58,30.56,30.41,30.18,10,10,10,16,10,22,0.00,4,,2
2011-12-25,20,7,-6,18,10,-7,92,84,76,30.54,30.19,29.89,10,5,0,7,1,8,0.26,7,Fog-Snow,340
2011-12-26,32,19,6,24,15,4,100,84,68,30.19,30.01,29.85,10,9,3,16,2,18,0.01,4,Snow,319
2011-12-27,44,24,4,41,27,2,93,84,75,30.13,29.88,29.56,10,9,5,20,4,28,0.15,6,Rain,179
2011-12-28,52,37,21,50,39,6,100,76,52,29.51,29.24,29.09,10,7,2,36,16,45,0.53,7,Rain,208
2011-12-29,25,20,14,7,2,-1,56,46,35,29.95,29.67,29.39,10,10,10,20,10,29,0.00,1,,265
2011-12-30,30,20,10,19,7,1,75,53,31,30.22,30.12,29.96,10,10,7,10,4,14,T,5,Snow,196
2011-12-31,39,33,27,37,31,19,100,85,69,30.17,29.95,29.81,10,4,0,10,5,13,0.21,8,Fog-Rain-Snow,351